Weather History for Cortez, CO

Change the Weather History Date:

Sunday, December 25, 2011

  Actual Average Record
Temperature  
Mean Temperature 24 °F 27 °F  
Max Temperature 39 °F 41 °F 51 °F (2005)
Min Temperature 8 °F 14 °F 1 °F (1997)
Degree Days  
Heating Degree Days 42 38  
Month to date heating degree days 907  
Since 1 July heating degree days 2432  
Cooling Degree Days 0 0  
Month to date cooling degree days 0  
Year to date cooling degree days 426  
Moisture  
Dew Point 12 °F    
Average Humidity 68    
Maximum Humidity 84    
Minimum Humidity 39    
Precipitation  
Precipitation 0.00 in 0.03 in 0.36 in (2008)
Month to date precipitation 0.68  
Year to date precipitation 13.41  
Sea Level Pressure  
Sea Level Pressure 30.49 in    
Wind  
Wind Speed 3 mph (East)    
Max Wind Speed 8 mph    
Max Gust Speed -    
Visibility 10 miles    
Events      
T = Trace of Precipitation, MM = Missing Value Source: NWS Daily Summary

Daily Weather History Graph

Daily Weather History Graph

Search for Another Location

Airport:

Trip Planner

Search our weather history database for the weather conditions in past years. The results will help you decide how hot, cold, wet, or windy it might be!

Date:

Astronomy

Dec. 25, 2011 Rise Set
Actual Time 7:26 AM MST 5:02 PM MST
Civil Twilight 6:57 AM MST 5:31 PM MST
Nautical Twilight 6:24 AM MST 6:04 PM MST
Astronomical Twilight 5:52 AM MST 6:36 PM MST
Moon 8:08 AM MST (12/25) 6:25 PM MST (12/25)
Length of Visible Light 10h 34m
Length of Day
9h 35m
New Moon, 1% of the Moon is Illuminated
Dec 25
New Moon
Dec 31
First Quarter
Jan 9
Full
Jan 16
Last Quarter
Jan 23
New

Hourly Weather History & Observations

Time (MST) Temp. Windchill Dew Point Humidity Pressure Visibility Wind Dir Wind Speed Gust Speed Precip Events Conditions
12:53 AM 14.0 °F 5.1 °F 9.0 °F 80% 30.51 in 10.0 mi ENE 5.8 mph - N/A   Clear
1:53 AM 10.9 °F - 6.1 °F 81% 30.51 in 10.0 mi Calm Calm - N/A   Clear
2:53 AM 10.9 °F 2.9 °F 7.0 °F 84% 30.51 in 10.0 mi East 4.6 mph - N/A   Clear
3:53 AM 12.0 °F 4.1 °F 7.0 °F 80% 30.51 in 10.0 mi ENE 4.6 mph - N/A   Clear
4:53 AM 8.1 °F - 3.9 °F 83% 30.56 in 10.0 mi Calm Calm - N/A   Clear
5:53 AM 10.0 °F - 6.1 °F 84% 30.57 in 10.0 mi Calm Calm - N/A   Clear
6:53 AM 9.0 °F 0.6 °F 5.0 °F 84% 30.60 in 10.0 mi East 4.6 mph - N/A   Clear
7:53 AM 10.0 °F 1.8 °F 6.1 °F 84% 30.63 in 10.0 mi NNE 4.6 mph - N/A   Clear
8:53 AM 17.1 °F - 12.0 °F 81% 30.62 in 10.0 mi Calm Calm - N/A   Clear
9:53 AM 25.0 °F - 16.0 °F 69% 30.60 in 10.0 mi Calm Calm - N/A   Clear
10:53 AM 32.0 °F 28.7 °F 14.0 °F 48% 30.55 in 10.0 mi SW 3.5 mph - N/A   Clear
11:53 AM 36.0 °F - 15.1 °F 43% 30.51 in 10.0 mi Calm Calm - N/A   Clear
12:53 PM 39.0 °F 35.7 °F 16.0 °F 39% 30.45 in 10.0 mi Variable 4.6 mph - N/A   Clear
1:53 PM 39.0 °F 35.7 °F 16.0 °F 39% 30.44 in 10.0 mi SW 4.6 mph - N/A   Clear
2:53 PM 39.9 °F 34.5 °F 18.0 °F 41% 30.41 in 10.0 mi SSW 8.1 mph - N/A   Clear
3:53 PM 39.0 °F 35.7 °F 17.1 °F 41% 30.40 in 10.0 mi WSW 4.6 mph - N/A   Clear
4:53 PM 34.0 °F 31.0 °F 17.1 °F 50% 30.43 in 10.0 mi SW 3.5 mph - N/A   Clear
5:53 PM 28.0 °F - 16.0 °F 61% 30.45 in 10.0 mi Calm Calm - N/A   Clear
6:53 PM 21.9 °F - 15.1 °F 75% 30.46 in 10.0 mi Calm Calm - N/A   Clear
7:53 PM 21.0 °F 12.4 °F 14.0 °F 74% 30.44 in 10.0 mi NE 6.9 mph - N/A   Clear
10:53 PM 16.0 °F 8.8 °F 12.0 °F 84% 30.34 in 10.0 mi ENE 4.6 mph - N/A   Clear
11:53 PM 16.0 °F 8.8 °F 12.0 °F 84% 30.32 in 10.0 mi NE 4.6 mph - N/A   Clear